| time (UTC) | temp F | wind direction | speed knots | gust knots | rain 1hr in | rain 24hr in | rain mn in | humidity % | barometer mb |
| 20260507115005 | 30 | 241 | 0.9 | 1.7 | 0.00 | 0.00 | 0.00 | 80 | 1009.7 |
| 20260507114504 | 30 | 242 | 0.9 | 3.5 | 0.00 | 0.00 | 0.00 | 80 | 1009.8 |
| 20260507114004 | 30 | 242 | 0.9 | 3.5 | 0.00 | 0.00 | 0.00 | 81 | 1009.8 |
| 20260507113005 | 28 | 242 | 0.0 | 1.7 | 0.00 | 0.00 | 0.00 | 83 | 1009.7 |
| 20260507112503 | 28 | 243 | 0.0 | 1.7 | 0.00 | 0.00 | 0.00 | 83 | 1009.6 |
| 20260507112004 | 28 | 242 | 0.0 | 1.7 | 0.00 | 0.00 | 0.00 | 83 | 1009.6 |
| 20260507111504 | 28 | 243 | 0.9 | 1.7 | 0.00 | 0.00 | 0.00 | 84 | 1009.6 |
| 20260507111005 | 28 | 234 | 0.9 | 1.7 | 0.00 | 0.00 | 0.00 | 84 | 1009.6 |
| 20260507110503 | 28 | 224 | 0.9 | 1.7 | 0.00 | 0.00 | 0.00 | 83 | 1009.6 |
| 20260507110005 | 30 | 220 | 0.9 | 3.5 | 0.00 | 0.00 | 0.00 | 81 | 1009.6 |
| 20260507105503 | 29 | 212 | 2.6 | 4.3 | 0.00 | 0.00 | 0.00 | 81 | 1009.7 |
| 20260507105005 | 29 | 215 | 2.6 | 4.3 | 0.00 | 0.00 | 0.00 | 84 | 1009.8 |
| 20260507104504 | 28 | 247 | 0.0 | 4.3 | 0.00 | 0.00 | 0.00 | 85 | 1009.8 |
| 20260507104005 | 29 | 313 | 0.0 | 1.7 | 0.00 | 0.00 | 0.00 | 82 | 1009.7 |
| 20260507103503 | 29 | 311 | 0.9 | 3.5 | 0.00 | 0.00 | 0.00 | 83 | 1009.7 |
| 20260507102503 | 29 | 306 | 0.9 | 1.7 | 0.00 | 0.00 | 0.00 | 80 | 1009.8 |
| 20260507102007 | 30 | 306 | 0.0 | 1.7 | 0.00 | 0.00 | 0.00 | 76 | 1009.8 |
| 20260507101503 | 30 | 308 | 0.0 | 0.9 | 0.00 | 0.00 | 0.00 | 79 | 1009.7 |
| 20260507100005 | 29 | 307 | 0.9 | 1.7 | 0.00 | 0.00 | 0.00 | 82 | 1009.5 |
| 20260507095503 | 29 | 296 | 0.9 | 3.5 | 0.00 | 0.00 | 0.00 | 81 | 1009.7 |
| 20260507095005 | 30 | 281 | 0.9 | 3.5 | 0.00 | 0.00 | 0.00 | 83 | 1009.7 |
| 20260507094503 | 30 | 275 | 0.9 | 1.7 | 0.00 | 0.00 | 0.00 | 82 | 1009.6 |
| 20260507094005 | 30 | 266 | 0.9 | 1.7 | 0.00 | 0.00 | 0.00 | 80 | 1009.5 |
| 20260507093005 | 31 | 212 | 0.0 | 1.7 | 0.00 | 0.00 | 0.00 | 77 | 1009.6 |
| 20260507092503 | 31 | 212 | 0.0 | 1.7 | 0.00 | 0.00 | 0.00 | 80 | 1009.7 |
| 20260507092005 | 31 | 0 | 0.0 | 0.0 | 0.00 | 0.00 | 0.00 | 79 | 1009.8 |
| 20260507091503 | 31 | 0 | 0.0 | 0.0 | 0.00 | 0.00 | 0.00 | 76 | 1009.7 |
| 20260507091005 | 31 | 0 | 0.0 | 0.0 | 0.00 | 0.00 | 0.00 | 76 | 1009.8 |
| 20260507090503 | 31 | 0 | 0.0 | 0.0 | 0.00 | 0.00 | 0.00 | 77 | 1009.8 |
| 20260507090006 | 31 | 0 | 0.0 | 0.0 | 0.00 | 0.00 | 0.00 | 75 | 1009.7 |
| 20260507085503 | 32 | 0 | 0.0 | 0.0 | 0.00 | 0.00 | 0.00 | 75 | 1009.7 |
| 20260507085005 | 32 | 0 | 0.0 | 0.0 | 0.00 | 0.00 | 0.00 | 77 | 1009.7 |
| 20260507084005 | 32 | 0 | 0.0 | 0.0 | 0.00 | 0.00 | 0.00 | 80 | 1009.8 |
| 20260507083503 | 32 | 0 | 0.0 | 0.0 | 0.00 | 0.00 | 0.00 | 75 | 1009.8 |
| 20260507083005 | 32 | 270 | 0.0 | 0.9 | 0.00 | 0.00 | 0.00 | 72 | 1009.9 |
| 20260507082005 | 32 | 270 | 0.0 | 0.9 | 0.00 | 0.00 | 0.00 | 72 | 1009.8 |
| 20260507081005 | 32 | 0 | 0.0 | 0.0 | 0.00 | 0.00 | 0.00 | 72 | 1010.0 |
| 20260507080503 | 33 | 272 | 0.9 | 1.7 | 0.00 | 0.00 | 0.00 | 72 | 1010.0 |
| 20260507075503 | 32 | 319 | 0.9 | 3.5 | 0.00 | 0.00 | 0.00 | 75 | 1010.1 |
| 20260507075005 | 32 | 334 | 0.9 | 4.3 | 0.00 | 0.00 | 0.00 | 73 | 1010.2 |
| 20260507072504 | 34 | 75 | 0.0 | 1.7 | 0.00 | 0.00 | 0.00 | 70 | 1010.3 |
| 20260507072006 | 33 | 75 | 0.0 | 0.9 | 0.00 | 0.00 | 0.00 | 71 | 1010.4 |
| 20260507071504 | 33 | 74 | 0.0 | 0.9 | 0.00 | 0.00 | 0.00 | 70 | 1010.5 |
| 20260507071005 | 34 | 75 | 0.0 | 1.7 | 0.00 | 0.00 | 0.00 | 71 | 1010.4 |
| 20260507070503 | 33 | 74 | 0.9 | 1.7 | 0.00 | 0.00 | 0.00 | 71 | 1010.5 |
| 20260507065503 | 32 | 75 | 0.0 | 1.7 | 0.00 | 0.00 | 0.00 | 75 | 1010.7 |
| 20260507065005 | 35 | 75 | 0.0 | 1.7 | 0.00 | 0.00 | 0.00 | 67 | 1010.7 |
| 20260507064504 | 35 | 74 | 0.0 | 1.7 | 0.00 | 0.00 | 0.00 | 69 | 1010.8 |
| 20260507064005 | 35 | 75 | 0.0 | 1.7 | 0.00 | 0.00 | 0.00 | 67 | 1010.8 |
| 20260507063503 | 35 | 75 | 0.0 | 1.7 | 0.00 | 0.00 | 0.00 | 69 | 1010.8 |
| 20260507063005 | 35 | 74 | 0.0 | 0.9 | 0.00 | 0.00 | 0.00 | 69 | 1010.9 |
| 20260507061504 | 35 | 0 | 0.0 | 0.0 | 0.00 | 0.00 | 0.00 | 69 | 1011.2 |
| 20260507061005 | 35 | 0 | 0.0 | 0.0 | 0.00 | 0.00 | 0.00 | 67 | 1011.3 |
| 20260507060504 | 35 | 0 | 0.0 | 0.0 | 0.00 | 0.00 | 0.00 | 71 | 1011.2 |
| 20260507055504 | 35 | 0 | 0.0 | 0.0 | 0.00 | 0.00 | 0.00 | 66 | 1011.4 |
| 20260507055005 | 35 | 0 | 0.0 | 0.0 | 0.00 | 0.00 | 0.00 | 70 | 1011.5 |
| 20260507054504 | 36 | 0 | 0.0 | 0.0 | 0.00 | 0.00 | 0.00 | 69 | 1011.5 |
| 20260507054005 | 35 | 0 | 0.0 | 0.0 | 0.00 | 0.00 | 0.00 | 71 | 1011.6 |
| 20260507053504 | 35 | 0 | 0.0 | 0.0 | 0.00 | 0.00 | 0.00 | 72 | 1011.8 |
| 20260507053005 | 35 | 0 | 0.0 | 0.0 | 0.00 | 0.00 | 0.00 | 73 | 1011.8 |
| 20260507052504 | 36 | 74 | 0.0 | 0.9 | 0.00 | 0.00 | 0.00 | 73 | 1012.0 |
| 20260507052004 | 36 | 74 | 0.0 | 0.9 | 0.00 | 0.00 | 0.00 | 73 | 1012.1 |
| 20260507051504 | 36 | 74 | 0.0 | 0.9 | 0.00 | 0.00 | 0.00 | 73 | 1012.0 |
| 20260507050504 | 36 | 74 | 0.0 | 0.9 | 0.00 | 0.00 | 0.00 | 72 | 1012.1 |
| 20260507050006 | 36 | 74 | 0.0 | 0.9 | 0.00 | 0.00 | 0.00 | 70 | 1012.2 |
| 20260507045504 | 36 | 74 | 0.0 | 0.9 | 0.00 | 0.00 | 0.00 | 71 | 1012.2 |
| 20260507045005 | 38 | 74 | 0.0 | 0.9 | 0.00 | 0.00 | 0.00 | 63 | 1012.3 |
| 20260507044503 | 37 | 0 | 0.0 | 0.0 | 0.00 | 0.00 | 0.00 | 65 | 1012.3 |
| 20260507044005 | 37 | 0 | 0.0 | 0.0 | 0.00 | 0.00 | 0.00 | 66 | 1012.4 |
| 20260507042004 | 37 | 75 | 0.0 | 0.9 | 0.00 | 0.00 | 0.00 | 64 | 1012.6 |
| 20260507041504 | 38 | 74 | 0.0 | 0.9 | 0.00 | 0.00 | 0.00 | 58 | 1012.7 |
| 20260507040503 | 40 | 74 | 0.0 | 0.9 | 0.00 | 0.00 | 0.00 | 56 | 1012.9 |
| 20260507040005 | 40 | 74 | 0.0 | 0.9 | 0.00 | 0.00 | 0.00 | 54 | 1012.9 |
| 20260507035503 | 40 | 74 | 0.0 | 0.9 | 0.00 | 0.00 | 0.00 | 55 | 1013.0 |
| 20260507035005 | 40 | 0 | 0.0 | 0.0 | 0.00 | 0.00 | 0.00 | 54 | 1013.0 |
| 20260507034503 | 40 | 0 | 0.0 | 0.0 | 0.00 | 0.00 | 0.00 | 54 | 1013.0 |
| 20260507034005 | 40 | 0 | 0.0 | 0.0 | 0.00 | 0.00 | 0.00 | 55 | 1013.1 |
| 20260507033504 | 40 | 0 | 0.0 | 0.0 | 0.00 | 0.00 | 0.00 | 53 | 1013.1 |
| 20260507033005 | 40 | 0 | 0.0 | 0.0 | 0.00 | 0.00 | 0.00 | 54 | 1013.1 |
| 20260507032503 | 40 | 0 | 0.0 | 0.0 | 0.00 | 0.00 | 0.00 | 52 | 1013.2 |
| 20260507032005 | 40 | 0 | 0.0 | 0.0 | 0.00 | 0.00 | 0.00 | 54 | 1013.2 |
| 20260507031503 | 40 | 0 | 0.0 | 0.0 | 0.00 | 0.00 | 0.00 | 55 | 1013.3 |
| 20260507031005 | 40 | 0 | 0.0 | 0.0 | 0.00 | 0.00 | 0.00 | 54 | 1013.3 |
| 20260507030503 | 41 | 74 | 0.9 | 1.7 | 0.00 | 0.00 | 0.00 | 52 | 1013.2 |
| 20260507030005 | 43 | 53 | 0.9 | 1.7 | 0.00 | 0.00 | 0.00 | 51 | 1013.3 |
| 20260507025504 | 42 | 29 | 0.9 | 1.7 | 0.00 | 0.00 | 0.00 | 51 | 1013.2 |
| 20260507025004 | 43 | 344 | 0.0 | 1.7 | 0.00 | 0.00 | 0.00 | 48 | 1013.3 |
| 20260507024504 | 43 | 0 | 0.0 | 0.0 | 0.00 | 0.00 | 0.00 | 49 | 1013.3 |
| 20260507023503 | 43 | 0 | 0.0 | 0.0 | 0.00 | 0.00 | 0.00 | 45 | 1013.3 |
| 20260507023005 | 44 | 0 | 0.0 | 0.0 | 0.00 | 0.00 | 0.00 | 44 | 1013.2 |
| 20260507022504 | 44 | 0 | 0.0 | 0.0 | 0.00 | 0.00 | 0.00 | 43 | 1013.4 |
| 20260507022004 | 45 | 0 | 0.0 | 0.0 | 0.00 | 0.00 | 0.00 | 42 | 1013.4 |
| 20260507021005 | 46 | 0 | 0.0 | 0.0 | 0.00 | 0.00 | 0.00 | 43 | 1013.5 |
| 20260507020005 | 47 | 342 | 0.0 | 1.7 | 0.00 | 0.00 | 0.00 | 40 | 1013.5 |
| 20260507015504 | 48 | 338 | 0.9 | 3.5 | 0.00 | 0.00 | 0.00 | 37 | 1013.6 |
| 20260507015005 | 48 | 334 | 0.9 | 3.5 | 0.00 | 0.00 | 0.00 | 35 | 1013.6 |
| 20260507014503 | 49 | 327 | 0.9 | 3.5 | 0.00 | 0.00 | 0.00 | 34 | 1013.7 |
| 20260507014005 | 49 | 314 | 2.6 | 5.2 | 0.00 | 0.00 | 0.00 | 34 | 1013.7 |
| 20260507013503 | 50 | 301 | 3.5 | 5.2 | 0.00 | 0.00 | 0.00 | 32 | 1013.7 |
| 20260507013005 | 51 | 298 | 3.5 | 6.1 | 0.00 | 0.00 | 0.00 | 30 | 1013.8 |
| 20260507012503 | 52 | 301 | 3.5 | 6.1 | 0.00 | 0.00 | 0.00 | 29 | 1013.8 |
| 20260507011504 | 53 | 284 | 4.3 | 7.0 | 0.00 | 0.00 | 0.00 | 28 | 1013.8 |
| 20260507011005 | 54 | 283 | 6.1 | 10.4 | 0.00 | 0.00 | 0.00 | 27 | 1013.8 |
| 20260507010503 | 54 | 272 | 7.0 | 10.4 | 0.00 | 0.00 | 0.00 | 25 | 1013.9 |
| 20260507005503 | 54 | 263 | 7.0 | 10.4 | 0.00 | 0.00 | 0.00 | 24 | 1014.0 |
| 20260507004504 | 55 | 273 | 7.0 | 12.2 | 0.00 | 0.00 | 0.00 | 24 | 1014.1 |
| 20260507004005 | 55 | 269 | 4.3 | 9.6 | 0.00 | 0.00 | 0.00 | 25 | 1014.1 |
| 20260507003503 | 55 | 269 | 6.1 | 8.7 | 0.00 | 0.00 | 0.00 | 25 | 1014.2 |
| 20260507001503 | 55 | 276 | 10.4 | 14.8 | 0.00 | 0.00 | 0.00 | 24 | 1014.3 |
| 20260507001005 | 55 | 273 | 10.4 | 15.6 | 0.00 | 0.00 | 0.00 | 24 | 1014.4 |
| 20260507000504 | 55 | 274 | 12.2 | 15.6 | 0.00 | 0.00 | 0.00 | 24 | 1014.5 |
| 20260507000005 | 55 | 274 | 10.4 | 15.6 | 0.00 | 0.00 | 0.00 | 23 | 1014.4 |
| 20260506235503 | 56 | 266 | 7.8 | 13.0 | 0.00 | 0.00 | 0.00 | 23 | 1014.5 |
| 20260506235005 | 57 | 265 | 7.0 | 11.3 | 0.00 | 0.00 | 0.00 | 27 | 1014.5 |
| 20260506234504 | 56 | 274 | 7.0 | 12.2 | 0.00 | 0.00 | 0.00 | 25 | 1014.5 |
| 20260506234004 | 55 | 267 | 9.6 | 13.0 | 0.00 | 0.00 | 0.00 | 25 | 1014.6 |
| 20260506233503 | 55 | 270 | 10.4 | 15.6 | 0.00 | 0.00 | 0.00 | 25 | 1014.8 |
| 20260506233005 | 54 | 267 | 9.6 | 15.6 | 0.00 | 0.00 | 0.00 | 25 | 1014.8 |
| 20260506232504 | 55 | 268 | 7.8 | 13.0 | 0.00 | 0.00 | 0.00 | 27 | 1014.8 |
| 20260506232004 | 56 | 280 | 10.4 | 17.4 | 0.00 | 0.00 | 0.00 | 25 | 1014.9 |
| 20260506231503 | 55 | 276 | 13.0 | 17.4 | 0.00 | 0.00 | 0.00 | 25 | 1015.0 |
| 20260506231005 | 56 | 271 | 12.2 | 17.4 | 0.00 | 0.00 | 0.00 | 25 | 1015.0 |
| 20260506230503 | 56 | 277 | 10.4 | 20.0 | 0.00 | 0.00 | 0.00 | 24 | 1014.9 |
| 20260506230005 | 56 | 273 | 12.2 | 22.6 | 0.00 | 0.00 | 0.00 | 23 | 1015.0 |
| 20260506225503 | 56 | 262 | 12.2 | 22.6 | 0.00 | 0.00 | 0.00 | 24 | 1015.0 |
| 20260506225005 | 56 | 265 | 7.8 | 15.6 | 0.00 | 0.00 | 0.00 | 25 | 1015.0 |
| 20260506224504 | 56 | 268 | 10.4 | 15.6 | 0.00 | 0.00 | 0.00 | 27 | 1015.0 |
| 20260506224004 | 56 | 264 | 10.4 | 15.6 | 0.00 | 0.00 | 0.00 | 24 | 1015.1 |
| 20260506223503 | 57 | 263 | 7.8 | 15.6 | 0.00 | 0.00 | 0.00 | 27 | 1015.0 |
| 20260506223005 | 56 | 247 | 9.6 | 13.0 | 0.00 | 0.00 | 0.00 | 27 | 1015.1 |
| 20260506222503 | 56 | 241 | 7.8 | 13.0 | 0.00 | 0.00 | 0.00 | 25 | 1015.2 |
| 20260506221504 | 55 | 284 | 7.8 | 14.8 | 0.00 | 0.00 | 0.00 | 28 | 1015.3 |
| 20260506221004 | 54 | 273 | 10.4 | 16.5 | 0.00 | 0.00 | 0.00 | 27 | 1015.4 |
| 20260506220503 | 54 | 271 | 9.6 | 16.5 | 0.00 | 0.00 | 0.00 | 27 | 1015.5 |
| 20260506220005 | 56 | 270 | 7.8 | 12.2 | 0.00 | 0.00 | 0.00 | 29 | 1015.5 |
| 20260506215503 | 54 | 263 | 7.8 | 12.2 | 0.00 | 0.00 | 0.00 | 28 | 1015.6 |
| 20260506215006 | 53 | 288 | 9.6 | 17.4 | 0.00 | 0.00 | 0.00 | 27 | 1015.8 |
| 20260506214005 | 54 | 281 | 13.0 | 17.4 | 0.00 | 0.00 | 0.00 | 28 | 1015.8 |
| 20260506213504 | 55 | 277 | 7.8 | 17.4 | 0.00 | 0.00 | 0.00 | 25 | 1015.8 |
| 20260506213005 | 53 | 290 | 6.1 | 10.4 | 0.00 | 0.00 | 0.00 | 28 | 1015.9 |
| 20260506212503 | 53 | 292 | 10.4 | 20.0 | 0.00 | 0.00 | 0.00 | 28 | 1016.0 |
| 20260506212004 | 54 | 285 | 13.0 | 20.0 | 0.00 | 0.00 | 0.00 | 29 | 1016.1 |
| 20260506211503 | 56 | 291 | 10.4 | 16.5 | 0.00 | 0.00 | 0.00 | 27 | 1016.2 |
| 20260506211005 | 55 | 310 | 7.0 | 12.2 | 0.00 | 0.00 | 0.00 | 27 | 1016.2 |
| 20260506210503 | 55 | 281 | 6.1 | 11.3 | 0.00 | 0.00 | 0.00 | 29 | 1016.3 |
| 20260506210005 | 52 | 264 | 7.0 | 10.4 | 0.00 | 0.00 | 0.00 | 33 | 1016.3 |
| 20260506205503 | 53 | 276 | 9.6 | 11.3 | 0.00 | 0.00 | 0.00 | 30 | 1016.6 |
| 20260506205005 | 52 | 285 | 10.4 | 15.6 | 0.00 | 0.00 | 0.00 | 30 | 1016.7 |
| 20260506204503 | 53 | 293 | 10.4 | 17.4 | 0.00 | 0.00 | 0.00 | 28 | 1016.7 |
| 20260506203503 | 55 | 284 | 12.2 | 18.2 | 0.00 | 0.00 | 0.00 | 29 | 1016.8 |
| 20260506203005 | 53 | 269 | 10.4 | 18.2 | 0.00 | 0.00 | 0.00 | 29 | 1016.9 |
| 20260506201503 | 54 | 288 | 6.1 | 16.5 | 0.00 | 0.00 | 0.00 | 28 | 1016.9 |
| 20260506200504 | 52 | 293 | 9.6 | 16.5 | 0.00 | 0.00 | 0.00 | 32 | 1017.2 |
| 20260506200005 | 52 | 280 | 9.6 | 17.4 | 0.00 | 0.00 | 0.00 | 29 | 1017.2 |
| 20260506195503 | 52 | 272 | 9.6 | 17.4 | 0.00 | 0.00 | 0.00 | 29 | 1017.3 |
| 20260506195004 | 51 | 282 | 12.2 | 18.2 | 0.00 | 0.00 | 0.00 | 30 | 1017.3 |
| 20260506194503 | 54 | 292 | 12.2 | 18.2 | 0.00 | 0.00 | 0.00 | 27 | 1017.5 |
| 20260506194005 | 54 | 286 | 10.4 | 13.0 | 0.00 | 0.00 | 0.00 | 30 | 1017.5 |
| 20260506192503 | 53 | 280 | 12.2 | 18.2 | 0.00 | 0.00 | 0.00 | 29 | 1017.7 |
| 20260506192005 | 52 | 278 | 9.6 | 18.2 | 0.00 | 0.00 | 0.00 | 29 | 1017.7 |
| 20260506191503 | 52 | 282 | 7.8 | 15.6 | 0.00 | 0.00 | 0.00 | 30 | 1017.7 |
| 20260506191005 | 53 | 293 | 10.4 | 20.9 | 0.00 | 0.00 | 0.00 | 29 | 1017.9 |
| 20260506190503 | 52 | 290 | 10.4 | 20.9 | 0.00 | 0.00 | 0.00 | 30 | 1017.9 |
| 20260506190005 | 50 | 284 | 7.8 | 13.0 | 0.00 | 0.00 | 0.00 | 32 | 1018.0 |
| 20260506184004 | 50 | 266 | 10.4 | 15.6 | 0.00 | 0.00 | 0.00 | 31 | 1018.3 |
| 20260506183503 | 51 | 268 | 10.4 | 14.8 | 0.00 | 0.00 | 0.00 | 30 | 1018.3 |
| 20260506183005 | 51 | 275 | 12.2 | 17.4 | 0.00 | 0.00 | 0.00 | 31 | 1018.4 |
| 20260506182503 | 51 | 276 | 9.6 | 17.4 | 0.00 | 0.00 | 0.00 | 32 | 1018.5 |
| 20260506182004 | 50 | 277 | 7.8 | 11.3 | 0.00 | 0.00 | 0.00 | 32 | 1018.5 |
| 20260506181004 | 49 | 288 | 9.6 | 17.4 | 0.00 | 0.00 | 0.00 | 31 | 1018.6 |
| 20260506180503 | 50 | 305 | 9.6 | 16.5 | 0.00 | 0.00 | 0.00 | 32 | 1018.6 |
| 20260506180006 | 51 | 292 | 10.4 | 16.5 | 0.00 | 0.00 | 0.00 | 31 | 1018.7 |
| 20260506175504 | 52 | 282 | 9.6 | 15.6 | 0.00 | 0.00 | 0.00 | 31 | 1018.7 |
| 20260506175005 | 50 | 283 | 9.6 | 15.6 | 0.00 | 0.00 | 0.00 | 31 | 1018.7 |
| 20260506174504 | 50 | 291 | 10.4 | 15.6 | 0.00 | 0.00 | 0.00 | 30 | 1018.8 |
| 20260506173504 | 49 | 300 | 10.4 | 18.2 | 0.00 | 0.00 | 0.00 | 35 | 1018.9 |
| 20260506173005 | 48 | 293 | 7.8 | 18.2 | 0.00 | 0.00 | 0.00 | 33 | 1019.0 |
| 20260506172503 | 49 | 286 | 7.8 | 15.6 | 0.00 | 0.00 | 0.00 | 32 | 1018.9 |
| 20260506172005 | 48 | 282 | 12.2 | 17.4 | 0.00 | 0.00 | 0.00 | 35 | 1019.1 |
| 20260506171503 | 48 | 272 | 9.6 | 17.4 | 0.00 | 0.00 | 0.00 | 33 | 1019.1 |
| 20260506171004 | 50 | 275 | 7.8 | 13.0 | 0.00 | 0.00 | 0.00 | 35 | 1019.0 |
| 20260506170503 | 50 | 288 | 7.8 | 13.0 | 0.00 | 0.00 | 0.00 | 32 | 1019.1 |
| 20260506170005 | 49 | 290 | 7.8 | 11.3 | 0.00 | 0.00 | 0.00 | 32 | 1019.2 |
| 20260506165503 | 49 | 307 | 7.8 | 15.6 | 0.00 | 0.00 | 0.00 | 35 | 1019.2 |
| 20260506164004 | 48 | 284 | 9.6 | 14.8 | 0.00 | 0.00 | 0.00 | 34 | 1019.4 |
| 20260506163004 | 49 | 289 | 10.4 | 15.6 | 0.00 | 0.00 | 0.00 | 32 | 1019.4 |
| 20260506162503 | 49 | 278 | 9.6 | 16.5 | 0.00 | 0.00 | 0.00 | 33 | 1019.5 |
| 20260506162005 | 48 | 290 | 7.8 | 16.5 | 0.00 | 0.00 | 0.00 | 32 | 1019.5 |
| 20260506161504 | 50 | 316 | 9.6 | 16.5 | 0.00 | 0.00 | 0.00 | 35 | 1019.4 |
| 20260506160005 | 46 | 293 | 13.0 | 20.0 | 0.00 | 0.00 | 0.00 | 31 | 1019.4 |
| 20260506155005 | 48 | 309 | 10.4 | 16.5 | 0.00 | 0.00 | 0.00 | 35 | 1019.4 |
| 20260506154005 | 47 | 281 | 12.2 | 18.2 | 0.00 | 0.00 | 0.00 | 34 | 1019.5 |
| 20260506153503 | 47 | 292 | 9.6 | 15.6 | 0.00 | 0.00 | 0.00 | 37 | 1019.4 |
| 20260506153005 | 47 | 307 | 9.6 | 17.4 | 0.00 | 0.00 | 0.00 | 37 | 1019.5 |
| 20260506152503 | 47 | 297 | 12.2 | 17.4 | 0.00 | 0.00 | 0.00 | 35 | 1019.5 |
| 20260506152005 | 47 | 300 | 10.4 | 16.5 | 0.00 | 0.00 | 0.00 | 34 | 1019.4 |
| 20260506151503 | 46 | 306 | 9.6 | 15.6 | 0.00 | 0.00 | 0.00 | 35 | 1019.5 |
| 20260506150503 | 46 | 306 | 9.6 | 13.0 | 0.00 | 0.00 | 0.00 | 37 | 1019.4 |
| 20260506150005 | 46 | 319 | 7.0 | 13.0 | 0.00 | 0.00 | 0.00 | 38 | 1019.4 |
| 20260506145503 | 46 | 307 | 7.0 | 12.2 | 0.00 | 0.00 | 0.00 | 35 | 1019.4 |
| 20260506144503 | 46 | 291 | 10.4 | 13.0 | 0.00 | 0.00 | 0.00 | 41 | 1019.5 |
| 20260506144005 | 45 | 290 | 10.4 | 15.6 | 0.00 | 0.00 | 0.00 | 41 | 1019.5 |
| 20260506143503 | 45 | 289 | 12.2 | 15.6 | 0.00 | 0.00 | 0.00 | 44 | 1019.5 |
| 20260506143005 | 44 | 285 | 12.2 | 16.5 | 0.00 | 0.00 | 0.00 | 44 | 1019.5 |
| 20260506142503 | 44 | 282 | 12.2 | 16.5 | 0.00 | 0.00 | 0.00 | 43 | 1019.6 |
| 20260506142005 | 43 | 292 | 12.2 | 16.5 | 0.00 | 0.00 | 0.00 | 44 | 1019.5 |
| 20260506141504 | 43 | 298 | 10.4 | 16.5 | 0.00 | 0.00 | 0.00 | 46 | 1019.6 |
| 20260506141005 | 43 | 299 | 10.4 | 14.8 | 0.00 | 0.00 | 0.00 | 45 | 1019.6 |
| 20260506140503 | 42 | 292 | 12.2 | 15.6 | 0.00 | 0.00 | 0.00 | 46 | 1019.6 |
| 20260506135503 | 42 | 295 | 9.6 | 12.2 | 0.00 | 0.00 | 0.00 | 48 | 1019.7 |
| 20260506135005 | 41 | 293 | 10.4 | 15.6 | 0.00 | 0.00 | 0.00 | 51 | 1019.7 |
| 20260506134504 | 40 | 288 | 10.4 | 15.6 | 0.00 | 0.00 | 0.00 | 49 | 1019.7 |
| 20260506134005 | 40 | 285 | 9.6 | 12.2 | 0.00 | 0.00 | 0.00 | 52 | 1019.7 |
| 20260506133503 | 39 | 290 | 7.8 | 11.3 | 0.00 | 0.00 | 0.00 | 53 | 1019.6 |
| 20260506133005 | 39 | 290 | 9.6 | 12.2 | 0.00 | 0.00 | 0.00 | 54 | 1019.6 |
| 20260506132503 | 38 | 294 | 9.6 | 12.2 | 0.00 | 0.00 | 0.00 | 55 | 1019.6 |
| 20260506131005 | 36 | 291 | 7.8 | 11.3 | 0.00 | 0.00 | 0.00 | 60 | 1019.7 |
| 20260506130503 | 36 | 295 | 7.8 | 12.2 | 0.00 | 0.00 | 0.00 | 61 | 1019.7 |
| 20260506130005 | 35 | 302 | 7.8 | 12.2 | 0.00 | 0.00 | 0.00 | 63 | 1019.6 |
| 20260506125503 | 34 | 304 | 7.0 | 12.2 | 0.00 | 0.00 | 0.00 | 64 | 1019.6 |
| 20260506125005 | 34 | 305 | 7.0 | 12.2 | 0.00 | 0.00 | 0.00 | 66 | 1019.5 |
| 20260506124503 | 33 | 299 | 7.0 | 12.2 | 0.00 | 0.00 | 0.00 | 67 | 1019.5 |
| 20260506124004 | 33 | 274 | 6.1 | 10.4 | 0.00 | 0.00 | 0.00 | 67 | 1019.4 |
| 20260506123503 | 33 | 262 | 4.3 | 10.4 | 0.00 | 0.00 | 0.00 | 66 | 1019.3 |
| 20260506123005 | 33 | 264 | 3.5 | 9.6 | 0.00 | 0.00 | 0.00 | 67 | 1019.2 |
| 20260506122503 | 32 | 263 | 3.5 | 7.0 | 0.00 | 0.00 | 0.00 | 70 | 1019.1 |
| 20260506122004 | 32 | 264 | 3.5 | 7.0 | 0.00 | 0.00 | 0.00 | 70 | 1019.1 |
| 20260506121503 | 31 | 274 | 4.3 | 7.0 | 0.00 | 0.00 | 0.00 | 71 | 1018.9 |
| 20260506121005 | 31 | 276 | 4.3 | 7.0 | 0.00 | 0.00 | 0.00 | 71 | 1018.9 |
| 20260506120503 | 31 | 283 | 3.5 | 6.1 | 0.00 | 0.00 | 0.00 | 72 | 1018.9 |
| 20260506120005 | 30 | 299 | 3.5 | 5.2 | 0.00 | 0.00 | 0.00 | 73 | 1018.9 |
| 20260506115504 | 30 | 304 | 2.6 | 4.3 | 0.00 | 0.00 | 0.00 | 74 | 1018.8 |